sat.trackr.live / text

‹ back to catalog

STARLINK-34567

NORAD 64795 · 2025-150F

PAYLOAD ACTIVE UNKNOWN

§ Identity

Operator
Country
US
Launch date
2025-07-16
Launch site
AFWTR
Launch vehicle
Mass (kg)
RCS (m²)

Purposes: comms

External: N2YO · Heavens-Above · Gunter

§ Orbital elements

Epoch: 2026-05-24T19:32:34.322496Z

Period
96.11 min
Inclination
70.0008°
Eccentricity
0.0002751
Mean motion
14.98335614 rev/d
Perigee alt
570.1 km
Apogee alt
574.0 km
Semi-major
6,950.2 km
B*
1.7304e-4
RAAN
302.3537°
Arg perigee
265.0068°
Mean anomaly
95.0778°
Rev number
4,792

§ Raw data

STARLINK-345671 64795U 25150F   26144.81428614  .00001973  00000+0  17304-3 0  99922 64795  70.0008 302.3537 0002751 265.0068  95.0778 14.98335614 47925

JSON: /api/v1/satellites/64795 · /tle

For live sub-satellite position, see the globe view (requires WebGL).

§ Visibility from observer

Set your observer location to see the next 7 days of passes ≥ 10°. The values pass through the URL so the page stays shareable.

No JS? Fill the form by hand. The geolocation button needs JavaScript.